Banff, Alberta

4:37 AM MDT on April 26, 2017 (GMT -0600)
Banff

Weather History for CWZG - December, 2012

Change the Weather History Date:

Tuesday, December 18, 2012

  Actual Average Record
Temperature  
Mean Temperature 14 °F -  
Max Temperature 22 °F - - ()
Min Temperature 3 °F - - ()
Degree Days  
Heating Degree Days 50    
Moisture  
Dew Point 9 °F    
Average Humidity 72    
Maximum Humidity 84    
Minimum Humidity 55    
Precipitation  
Precipitation 0.00 in - - ()
Sea Level Pressure  
Sea Level Pressure 29.74 in    
Wind  
Wind Speed 5 mph ()    
Max Wind Speed 8 mph    
Max Gust Speed -    
T = Trace of Precipitation, MM = Missing Value Source: Averaged Metar Reports

Daily Weather History Graph

Daily Weather History Graph

Search for Another Location

Airport or City:

Trip Planner

Search our weather history database for the weather conditions in past years. The results will help you decide how hot, cold, wet, or windy it might be!

Date:

Astronomy

Dec. 18, 2012 Rise Set
Actual Time 8:42 AM MST 4:35 PM MST
Civil Twilight 8:02 AM MST 5:15 PM MST
Nautical Twilight 7:19 AM MST 5:58 PM MST
Astronomical Twilight 6:39 AM MST 6:39 PM MST
Moon 11:47 AM MST (12/18) 11:48 PM MST (12/18)
Length of Visible Light 9h 13m
Length of Day
7h 53m
Waxing Crescent, 35% of the Moon is Illuminated
Dec 18
Waxing Crescent
Dec 19
First Quarter
Dec 28
Full
Jan 4
Last Quarter
Jan 11
New

Hourly Weather History & Observations

Time (MST) Temp. Windchill Dew Point Humidity Pressure Visibility Wind Dir Wind Speed Gust Speed Precip Events Conditions
12:00 AM 21.4 °F 15.1 °F 16.3 °F 81% 29.52 in - WSW 4.6 mph - N/A   Unknown
1:00 AM 21.0 °F 13.4 °F 14.4 °F 75% 29.55 in - WSW 5.8 mph - N/A   Unknown
2:00 AM 20.7 °F 13.0 °F 15.3 °F 80% 29.57 in - WSW 5.8 mph - N/A   Unknown
3:00 AM 20.1 °F 13.6 °F 14.0 °F 77% 29.60 in - WSW 4.6 mph - N/A   Unknown
4:00 AM 20.1 °F 11.3 °F 13.3 °F 75% 29.62 in - SW 6.9 mph - N/A   Unknown
5:00 AM 19.8 °F 11.9 °F 12.6 °F 74% 29.65 in - WSW 5.8 mph - N/A   Unknown
6:00 AM 19.2 °F 10.2 °F 12.0 °F 74% 29.67 in - SW 6.9 mph - N/A   Unknown
7:00 AM 17.6 °F 9.3 °F 11.3 °F 76% 29.69 in - SW 5.8 mph - N/A   Unknown
8:00 AM 16.5 °F 9.4 °F 10.4 °F 77% 29.72 in - SW 4.6 mph - N/A   Unknown
9:00 AM 15.6 °F 8.3 °F 10.0 °F 79% 29.74 in - SW 4.6 mph - N/A   Unknown
10:00 AM 15.4 °F 6.8 °F 9.3 °F 77% 29.76 in - SW 5.8 mph - N/A   Unknown
11:00 AM 17.6 °F 12.3 °F 8.6 °F 68% 29.76 in - SW 3.5 mph - N/A   Unknown
12:00 PM 20.3 °F 11.5 °F 8.4 °F 60% 29.75 in - SW 6.9 mph - N/A   Unknown
1:00 PM 22.3 °F 13.9 °F 8.2 °F 55% 29.75 in - WSW 6.9 mph - N/A   Unknown
2:00 PM 20.3 °F 10.6 °F 10.4 °F 66% 29.76 in - SW 8.1 mph - N/A   Unknown
3:00 PM 19.0 °F 11.1 °F 10.9 °F 71% 29.78 in - WSW 5.8 mph - N/A   Unknown
4:00 PM 19.4 °F 12.8 °F 9.7 °F 66% 29.79 in - SW 4.6 mph - N/A   Unknown
5:00 PM 18.5 °F 13.3 °F 6.6 °F 60% 29.81 in - WSW 3.5 mph - N/A   Unknown
6:00 PM 16.0 °F - 4.3 °F 60% 29.85 in - WSW 2.3 mph - N/A   Unknown
7:00 PM 13.6 °F 7.7 °F 5.9 °F 71% 29.88 in - SW 3.5 mph - N/A   Unknown
8:00 PM 10.9 °F 4.7 °F 3.7 °F 73% 29.90 in - SW 3.5 mph - N/A   Unknown
9:00 PM 9.3 °F -0.5 °F 4.5 °F 81% 29.91 in - SW 5.8 mph - N/A   Unknown
10:00 PM 7.7 °F - 2.5 °F 79% 29.92 in - West 2.3 mph - N/A   Unknown
11:00 PM 3.4 °F - -0.4 °F 84% 29.93 in - Calm Calm - N/A   Unknown